{"data":{"norad_id":25159,"intl_designator":"1998-007C","name":"ORBCOMM FM04","alt_names":[],"object_type":"PAYLOAD","status":"ACTIVE","operator":null,"country":"ORB","launch_date":"1998-02-10","launch_site_code":"AFWTR","launch_vehicle":null,"mission":null,"orbit_class":"UNKNOWN","rcs_meters":0.883,"size_class":null,"mass_kg":null,"dimensions":null,"purposes":["comms"],"wikipedia_slug":null,"has_3d_model":false,"image_url":null,"decayed_at":null,"tle_current":{"epoch":"2026-05-25T04:37:27.647904Z","epoch_age_seconds":54479,"freshness":"FRESH","line1":"1 25159U 98007C   26145.19268111  .00000833  00000+0  33089-3 0  9992","line2":"2 25159 107.9624 122.0959 0040545   4.5562 355.5941 14.35689024473290","mean_motion":14.35689024,"eccentricity":0.0040545,"inclination_deg":107.9624,"raan_deg":122.0959,"arg_perigee_deg":4.5562,"mean_anomaly_deg":355.5941,"bstar":0.00033089,"rev_number":47329,"period_min":100.30027226843,"perigee_km":743.78415740651,"apogee_km":801.7709234147,"semimajor_km":7150.9145404106,"source":"CELESTRAK","updated_at":"2026-05-25T13:38:22.862151Z"}}}